contact:dominique.lefevre@mio.osupytheas.fr, maurice.libes@osupytheas.fr, didier.mallarino@osupytheas.fr
Project:EMSO http://www.emso-fr.org/EMSO-France
Depth: 2436.0 m
Title:EMSO Ligure Ouest : Data MII capteur AQUADOPP
Date,Latitude,Longitude,X_East,Y_North,Z_Up,Amplitude_X,Amplitude_Y,Amplitude_Z,Batterie,SoundSpeed,Heading,Pitch,Roll,Pressure,TIS,Speed,Direction
, degrees North, degrees East, m.s-1, m.s-1,m.s-1, 1, 1, 1, Volt, m.s-1, degree, degree, degree, dbar, degree_C, m.s-1, degree
2023-10-06T00:04:03,42.805,6.029,-0.014,0.037,-0.002,103.0,103.0,102.0,13.4,1505.2,329.1,-0.8,1.8,2471.597,13.29,0.039,339.3
2023-10-06T00:07:03,42.805,6.029,0.029,0.025,0.005,104.0,104.0,101.0,13.4,1505.2,338.7,-0.8,1.8,2471.513,13.29,0.038,49.2
2023-10-06T00:10:03,42.805,6.029,0.0,0.027,-0.01,103.0,104.0,103.0,13.4,1505.2,332.2,-0.8,1.8,2471.591,13.29,0.026,0.0
2023-10-06T00:13:03,42.805,6.029,-0.01,0.053,0.007,104.0,104.0,100.0,13.3,1505.2,336.0,-0.8,1.8,2471.568,13.29,0.053,349.3
2023-10-06T00:16:03,42.805,6.029,0.023,0.02,0.008,104.0,104.0,102.0,13.4,1505.2,357.1,-0.7,1.8,2471.539,13.29,0.03,49.0
2023-10-06T00:19:03,42.805,6.029,0.002,0.01,-0.003,103.0,102.0,102.0,13.4,1505.2,329.1,-0.8,1.8,2471.553,13.29,0.01,11.3
2023-10-06T00:22:03,42.805,6.029,0.001,0.035,0.008,104.0,104.0,101.0,13.4,1505.2,337.6,-0.8,1.8,2471.525,13.29,0.035,1.6
2023-10-06T00:25:03,42.805,6.029,0.003,0.025,-0.029,104.0,103.0,102.0,13.3,1505.2,356.8,-0.8,1.8,2471.542,13.29,0.025,6.8
2023-10-06T00:28:03,42.805,6.029,-0.003,0.017,0.012,103.0,104.0,102.0,13.4,1505.2,344.6,-0.8,1.8,2471.537,13.29,0.017,350.0
2023-10-06T00:31:03,42.805,6.029,-0.01,0.013,-0.008,103.0,104.0,101.0,13.3,1505.2,339.5,-0.8,1.8,2471.527,13.29,0.016,322.4
2023-10-06T00:34:03,42.805,6.029,0.004,0.051,-0.006,103.0,104.0,101.0,13.4,1505.2,334.1,-0.8,1.8,2471.501,13.29,0.051,4.5
2023-10-06T00:37:03,42.805,6.029,-0.016,0.042,-0.009,104.0,103.0,101.0,13.3,1505.2,337.8,-0.8,1.8,2471.494,13.29,0.044,339.1
2023-10-06T00:40:03,42.805,6.029,-0.007,0.037,0.006,104.0,105.0,101.0,13.4,1505.2,339.5,-0.8,1.8,2471.505,13.29,0.037,349.3
2023-10-06T00:43:03,42.805,6.029,0.001,0.016,-0.011,103.0,105.0,102.0,13.4,1505.2,339.1,-0.7,1.8,2471.474,13.29,0.016,3.6
2023-10-06T00:46:03,42.805,6.029,0.015,0.042,-0.004,104.0,103.0,102.0,13.4,1505.2,357.1,-0.7,1.8,2471.477,13.29,0.044,19.6
2023-10-06T00:49:03,42.805,6.029,-0.024,0.035,0.0,103.0,104.0,101.0,13.4,1505.2,338.9,-0.8,1.8,2471.488,13.29,0.042,325.6
2023-10-06T00:52:03,42.805,6.029,0.003,0.015,-0.004,103.0,102.0,102.0,13.3,1505.2,335.1,-0.8,1.8,2471.531,13.29,0.015,11.3
2023-10-06T00:55:03,42.805,6.029,0.0,0.033,0.0,103.0,103.0,101.0,13.4,1505.2,344.3,-0.7,1.8,2471.496,13.29,0.033,0.0
2023-10-06T00:58:03,42.805,6.029,-0.002,0.027,-0.018,104.0,102.0,101.0,13.4,1505.2,337.0,-0.8,1.8,2471.508,13.29,0.027,355.8
2023-10-06T01:04:03,42.805,6.029,0.022,0.043,0.031,103.0,105.0,102.0,13.4,1505.2,335.5,-0.8,1.8,2471.547,13.29,0.048,27.1
2023-10-06T01:07:03,42.805,6.029,0.013,0.022,-0.019,103.0,103.0,102.0,13.4,1505.2,347.4,-0.7,1.8,2471.532,13.29,0.025,30.6
2023-10-06T01:10:03,42.805,6.029,0.004,0.04,-0.011,104.0,103.0,101.0,13.3,1505.2,340.5,-0.8,1.8,2471.542,13.29,0.04,5.7
2023-10-06T01:13:03,42.805,6.029,-0.016,0.036,-0.007,101.0,105.0,103.0,13.4,1505.2,335.4,-0.8,1.8,2471.537,13.29,0.039,336.0
2023-10-06T01:16:03,42.805,6.029,0.0,0.039,0.002,104.0,102.0,102.0,13.4,1505.2,337.8,-0.8,1.8,2471.534,13.29,0.039,0.0
2023-10-06T01:19:03,42.805,6.029,0.007,0.042,-0.017,103.0,104.0,101.0,13.4,1505.2,348.2,-0.7,1.9,2471.499,13.29,0.042,9.5
2023-10-06T01:22:03,42.805,6.029,0.024,0.029,0.011,104.0,105.0,101.0,13.4,1505.2,351.3,-0.8,1.8,2471.493,13.29,0.037,39.6
2023-10-06T01:25:03,42.805,6.029,-0.012,0.05,-0.002,104.0,103.0,101.0,13.3,1505.2,329.8,-0.7,1.8,2471.476,13.29,0.051,346.5
2023-10-06T01:28:03,42.805,6.029,-0.002,0.047,0.0,103.0,104.0,101.0,13.4,1505.2,334.3,-0.7,1.8,2471.496,13.29,0.047,357.6
2023-10-06T01:31:03,42.805,6.029,-0.004,0.052,0.012,103.0,102.0,102.0,13.3,1505.2,352.2,-0.7,1.8,2471.482,13.29,0.052,355.6
2023-10-06T01:34:03,42.805,6.029,0.002,0.042,0.007,103.0,104.0,102.0,13.4,1505.2,350.7,-0.7,1.8,2471.448,13.29,0.042,2.7
2023-10-06T01:37:03,42.805,6.029,0.0,0.032,0.005,103.0,102.0,103.0,13.4,1505.2,347.4,-0.8,1.8,2471.493,13.29,0.032,0.0
2023-10-06T01:40:03,42.805,6.029,-0.013,0.034,0.001,104.0,103.0,101.0,13.4,1505.2,326.8,-0.8,1.8,2471.491,13.29,0.036,339.1
2023-10-06T01:43:03,42.805,6.029,0.011,0.019,0.013,103.0,103.0,102.0,13.4,1505.2,341.2,-0.8,1.8,2471.51,13.29,0.021,30.1
2023-10-06T01:46:03,42.805,6.029,-0.002,0.025,0.008,103.0,104.0,101.0,13.4,1505.2,328.8,-0.8,1.8,2471.478,13.29,0.025,355.4
2023-10-06T01:49:03,42.805,6.029,0.002,0.028,-0.011,103.0,103.0,101.0,13.4,1505.2,336.1,-0.8,1.8,2471.491,13.29,0.028,4.1
2023-10-06T01:52:03,42.805,6.029,0.009,0.023,0.003,102.0,104.0,101.0,13.4,1505.2,333.4,-0.7,1.8,2471.495,13.29,0.024,21.4
2023-10-06T01:55:03,42.805,6.029,-0.011,0.035,-0.015,103.0,102.0,102.0,13.4,1505.2,338.0,-0.8,1.8,2471.466,13.29,0.036,342.6
2023-10-06T01:58:03,42.805,6.029,-0.001,0.037,-0.024,104.0,103.0,102.0,13.4,1505.2,339.6,-0.7,1.8,2471.482,13.29,0.037,358.5
2023-10-06T02:04:03,42.805,6.029,0.002,0.037,0.039,103.0,104.0,101.0,13.4,1505.2,344.6,-0.8,1.8,2471.515,13.29,0.037,3.1
2023-10-06T02:07:03,42.805,6.029,0.019,0.031,0.015,104.0,102.0,101.0,13.4,1505.2,348.4,-0.7,1.8,2471.513,13.29,0.036,31.5
2023-10-06T02:10:03,42.805,6.029,0.003,0.027,-0.019,104.0,103.0,101.0,13.4,1505.2,354.6,-0.8,1.8,2471.467,13.29,0.027,6.3
2023-10-06T02:13:03,42.805,6.029,-0.037,0.038,-0.012,103.0,104.0,101.0,13.3,1505.2,333.0,-0.8,1.8,2471.51,13.29,0.053,315.8
2023-10-06T02:16:03,42.805,6.029,0.001,0.04,0.011,103.0,103.0,102.0,13.4,1505.2,345.9,-0.8,1.8,2471.492,13.29,0.04,1.4
2023-10-06T02:19:03,42.805,6.029,-0.014,0.042,0.036,104.0,103.0,101.0,13.4,1505.2,332.2,-0.8,1.8,2471.474,13.29,0.044,341.6
2023-10-06T02:22:03,42.805,6.029,0.002,0.01,-0.037,101.0,103.0,102.0,13.4,1505.2,345.9,-0.8,1.8,2471.469,13.29,0.01,11.3
2023-10-06T02:25:03,42.805,6.029,-0.005,0.033,-0.004,102.0,103.0,101.0,13.4,1505.2,334.2,-0.7,1.8,2471.491,13.29,0.033,351.4
2023-10-06T02:28:03,42.805,6.029,0.016,0.02,-0.003,102.0,104.0,101.0,13.3,1505.2,343.3,-0.7,1.8,2471.472,13.29,0.025,38.7
2023-10-06T02:31:03,42.805,6.029,0.0,0.025,-0.016,103.0,103.0,101.0,13.3,1505.2,354.2,-0.8,1.8,2471.473,13.29,0.025,0.0
2023-10-06T02:34:03,42.805,6.029,-0.018,0.022,-0.001,106.0,103.0,102.0,13.4,1505.2,329.0,-0.8,1.8,2471.494,13.29,0.028,320.7
2023-10-06T02:37:03,42.805,6.029,-0.036,0.039,-0.044,104.0,104.0,101.0,13.4,1505.2,328.7,-0.8,1.8,2471.46,13.29,0.053,317.3
2023-10-06T02:40:03,42.805,6.029,-0.005,0.037,-0.014,103.0,103.0,101.0,13.4,1505.2,351.4,-0.8,1.8,2471.457,13.29,0.037,352.3
2023-10-06T02:43:03,42.805,6.029,-0.002,0.012,0.0,103.0,104.0,101.0,13.3,1505.2,332.2,-0.8,1.8,2471.472,13.29,0.012,350.5
2023-10-06T02:46:03,42.805,6.029,0.003,0.028,-0.003,103.0,104.0,100.0,13.3,1505.2,354.4,-0.8,1.8,2471.488,13.29,0.028,6.1
2023-10-06T02:49:03,42.805,6.029,0.016,0.019,0.008,102.0,102.0,103.0,13.4,1505.2,328.8,-0.8,1.8,2471.471,13.29,0.024,40.1
2023-10-06T02:52:03,42.805,6.029,0.003,0.023,0.006,103.0,103.0,102.0,13.3,1505.2,349.1,-0.8,1.8,2471.466,13.29,0.023,7.4
2023-10-06T02:55:03,42.805,6.029,0.001,0.007,-0.007,102.0,104.0,102.0,13.4,1505.2,330.0,-0.7,1.8,2471.497,13.29,0.007,8.1
2023-10-06T02:58:03,42.805,6.029,0.007,0.046,0.006,103.0,103.0,102.0,13.3,1505.2,335.5,-0.7,1.8,2471.476,13.29,0.046,8.7
2023-10-06T03:04:03,42.805,6.029,0.006,0.027,-0.011,103.0,102.0,102.0,13.3,1505.2,342.5,-0.7,1.8,2471.54,13.29,0.027,12.5
2023-10-06T03:07:03,42.805,6.029,0.005,0.038,-0.008,104.0,104.0,102.0,13.4,1505.2,328.7,-0.8,1.8,2471.499,13.29,0.038,7.5
2023-10-06T03:10:03,42.805,6.029,-0.017,0.043,-0.023,104.0,104.0,102.0,13.3,1505.2,336.3,-0.7,1.8,2471.512,13.29,0.046,338.4
2023-10-06T03:13:03,42.805,6.029,0.001,0.041,0.002,104.0,103.0,101.0,13.4,1505.2,355.3,-0.7,1.8,2471.487,13.29,0.041,1.4
2023-10-06T03:16:03,42.805,6.029,0.022,0.028,0.006,104.0,104.0,101.0,13.4,1505.2,337.2,-0.8,1.8,2471.51,13.29,0.035,38.2
2023-10-06T03:19:03,42.805,6.029,0.001,0.023,-0.028,104.0,102.0,102.0,13.4,1505.2,334.7,-0.7,1.8,2471.511,13.29,0.023,2.5
2023-10-06T03:22:03,42.805,6.029,-0.005,0.065,0.018,103.0,103.0,102.0,13.4,1505.2,356.9,-0.8,1.8,2471.461,13.29,0.065,355.6
2023-10-06T03:25:03,42.805,6.029,0.009,0.033,-0.019,103.0,103.0,101.0,13.4,1505.2,329.5,-0.8,1.8,2471.468,13.29,0.034,15.3
2023-10-06T03:28:03,42.805,6.029,-0.002,0.044,-0.003,103.0,103.0,101.0,13.3,1505.2,344.3,-0.7,1.8,2471.452,13.29,0.044,357.4
2023-10-06T03:31:03,42.805,6.029,0.0,0.01,0.0,102.0,102.0,102.0,13.4,1505.2,331.8,-0.7,1.8,2471.446,13.29,0.01,0.0
2023-10-06T03:34:03,42.805,6.029,-0.007,0.035,-0.009,102.0,103.0,102.0,13.4,1505.2,340.7,-0.8,1.8,2471.444,13.29,0.035,348.7
2023-10-06T03:37:03,42.805,6.029,0.0,0.036,-0.037,102.0,103.0,102.0,13.4,1505.2,339.5,-0.8,1.8,2471.492,13.29,0.036,0.0
2023-10-06T03:40:03,42.805,6.029,-0.028,0.043,0.01,102.0,104.0,101.0,13.3,1505.2,330.6,-0.8,1.8,2471.447,13.29,0.051,326.9
2023-10-06T03:43:03,42.805,6.029,0.009,0.027,0.014,102.0,103.0,102.0,13.4,1505.2,345.4,-0.8,1.8,2471.449,13.29,0.028,18.4
2023-10-06T03:46:03,42.805,6.029,-0.02,0.011,-0.025,104.0,105.0,101.0,13.3,1505.2,331.3,-0.7,1.8,2471.44,13.29,0.022,298.8
2023-10-06T03:49:03,42.805,6.029,0.018,0.027,-0.005,104.0,103.0,102.0,13.4,1505.2,352.3,-0.7,1.8,2471.459,13.29,0.032,33.7
2023-10-06T03:52:03,42.805,6.029,-0.008,0.026,-0.003,103.0,104.0,101.0,13.4,1505.2,329.5,-0.8,1.8,2471.453,13.29,0.027,342.9
2023-10-06T03:55:03,42.805,6.029,-0.006,0.012,-0.019,103.0,102.0,102.0,13.4,1505.2,337.6,-0.8,1.8,2471.471,13.29,0.013,333.4
2023-10-06T03:58:03,42.805,6.029,0.027,0.025,-0.003,102.0,102.0,102.0,13.3,1505.2,356.8,-0.8,1.8,2471.463,13.29,0.036,47.2
2023-10-06T04:04:03,42.805,6.029,0.0,0.035,0.0,103.0,104.0,101.0,13.4,1505.2,354.9,-0.8,1.8,2471.511,13.29,0.035,0.0
2023-10-06T04:07:03,42.805,6.029,-0.016,0.033,0.011,104.0,103.0,101.0,13.4,1505.2,329.1,-0.8,1.8,2471.485,13.29,0.036,334.1
2023-10-06T04:10:03,42.805,6.029,-0.003,0.044,0.023,103.0,104.0,102.0,13.4,1505.2,343.9,-0.8,1.9,2471.456,13.29,0.044,356.1
2023-10-06T04:13:03,42.805,6.029,-0.014,0.018,0.001,102.0,103.0,102.0,13.3,1505.2,332.1,-0.8,1.8,2471.489,13.29,0.022,322.1
2023-10-06T04:16:03,42.805,6.029,0.004,0.027,0.009,103.0,102.0,101.0,13.3,1505.2,354.7,-0.7,1.8,2471.464,13.29,0.027,8.4
2023-10-06T04:19:03,42.805,6.029,-0.015,0.021,-0.018,103.0,104.0,102.0,13.3,1505.2,336.1,-0.8,1.8,2471.516,13.29,0.025,324.5
2023-10-06T04:22:03,42.805,6.029,0.028,0.02,0.014,103.0,103.0,102.0,13.4,1505.2,345.7,-0.8,1.8,2471.454,13.29,0.034,54.5
2023-10-06T04:25:03,42.805,6.029,-0.019,0.036,0.0,103.0,103.0,101.0,13.4,1505.2,329.5,-0.8,1.8,2471.454,13.29,0.04,332.2
2023-10-06T04:28:03,42.805,6.029,0.013,0.018,-0.029,104.0,103.0,102.0,13.4,1505.2,355.6,-0.8,1.8,2471.475,13.29,0.022,35.8
2023-10-06T04:31:03,42.805,6.029,0.002,0.021,-0.01,102.0,104.0,102.0,13.4,1505.2,337.0,-0.8,1.8,2471.452,13.29,0.021,5.4
2023-10-06T04:34:03,42.805,6.029,-0.01,0.012,-0.006,104.0,103.0,101.0,13.4,1505.2,336.8,-0.8,1.8,2471.449,13.29,0.015,320.2
2023-10-06T04:37:03,42.805,6.029,-0.024,0.04,-0.026,103.0,103.0,101.0,13.3,1505.2,331.8,-0.8,1.8,2471.45,13.29,0.046,329.0
2023-10-06T04:40:03,42.805,6.029,-0.002,0.064,0.019,103.0,102.0,101.0,13.3,1505.2,350.5,-0.8,1.8,2471.502,13.29,0.064,358.2
2023-10-06T04:43:03,42.805,6.029,0.005,0.03,0.008,104.0,103.0,102.0,13.3,1505.2,346.2,-0.8,1.8,2471.457,13.29,0.03,9.5
2023-10-06T04:46:03,42.805,6.029,-0.002,0.027,0.014,103.0,104.0,101.0,13.3,1505.2,329.1,-0.8,1.8,2471.434,13.29,0.027,355.8
2023-10-06T04:49:03,42.805,6.029,-0.001,0.035,-0.009,103.0,104.0,101.0,13.4,1505.2,340.4,-0.8,1.8,2471.447,13.29,0.035,358.4
2023-10-06T04:52:03,42.805,6.029,0.0,0.031,0.0,104.0,103.0,101.0,13.4,1505.2,356.8,-0.8,1.8,2471.439,13.29,0.03,0.0
2023-10-06T04:55:03,42.805,6.029,-0.031,0.044,0.002,102.0,104.0,101.0,13.4,1505.2,330.1,-0.8,1.8,2471.479,13.29,0.053,324.8
2023-10-06T04:58:03,42.805,6.029,0.018,0.017,0.004,103.0,103.0,102.0,13.4,1505.2,357.9,-0.8,1.8,2471.448,13.29,0.024,46.6
2023-10-06T05:04:03,42.805,6.029,-0.01,0.03,-0.032,103.0,103.0,101.0,13.3,1505.2,338.2,-0.7,1.8,2471.486,13.29,0.031,341.6
2023-10-06T05:07:03,42.805,6.029,-0.011,0.037,-0.01,103.0,104.0,102.0,13.3,1505.2,342.3,-0.7,1.8,2471.484,13.29,0.038,343.4
2023-10-06T05:10:03,42.805,6.029,0.004,0.016,-0.005,102.0,104.0,102.0,13.4,1505.2,343.3,-0.8,1.8,2471.491,13.29,0.016,14.0
2023-10-06T05:13:03,42.805,6.029,-0.004,0.024,-0.007,103.0,104.0,102.0,13.4,1505.2,334.6,-0.8,1.8,2471.46,13.29,0.024,350.5
2023-10-06T05:16:03,42.805,6.029,0.018,0.003,-0.025,104.0,104.0,102.0,13.3,1505.2,331.0,-0.8,1.8,2471.444,13.29,0.018,80.5
2023-10-06T05:19:03,42.805,6.029,0.005,0.037,-0.024,105.0,105.0,102.0,13.3,1505.2,345.7,-0.7,1.8,2471.442,13.29,0.037,7.7
2023-10-06T05:22:03,42.805,6.029,-0.005,0.023,0.002,105.0,103.0,102.0,13.4,1505.2,348.0,-0.8,1.8,2471.44,13.29,0.023,347.7
2023-10-06T05:25:03,42.805,6.029,-0.003,0.034,0.024,103.0,104.0,102.0,13.3,1505.2,332.6,-0.7,1.8,2471.446,13.29,0.034,355.0
2023-10-06T05:28:03,42.805,6.029,-0.003,0.033,-0.001,104.0,103.0,101.0,13.4,1505.2,348.4,-0.7,1.8,2471.447,13.29,0.033,354.8
2023-10-06T05:31:03,42.805,6.029,0.012,0.044,0.021,104.0,104.0,101.0,13.4,1505.2,355.7,-0.7,1.8,2471.436,13.29,0.045,15.3
2023-10-06T05:34:03,42.805,6.029,-0.026,0.029,-0.042,104.0,104.0,103.0,13.3,1505.2,344.5,-0.8,1.8,2471.433,13.29,0.038,318.1
2023-10-06T05:37:03,42.805,6.029,0.001,0.046,0.044,105.0,104.0,103.0,13.4,1505.2,335.6,-0.7,1.8,2471.494,13.29,0.046,1.2
2023-10-06T05:40:03,42.805,6.029,0.003,0.023,-0.012,104.0,103.0,102.0,13.4,1505.2,350.0,-0.8,1.8,2471.447,13.29,0.023,7.4
2023-10-06T05:43:03,42.805,6.029,-0.011,0.037,-0.046,104.0,104.0,102.0,13.4,1505.2,355.8,-0.7,1.8,2471.46,13.29,0.038,343.4
2023-10-06T05:46:03,42.805,6.029,0.002,0.039,0.02,103.0,103.0,102.0,13.3,1505.2,339.1,-0.8,1.8,2471.448,13.29,0.039,2.9
2023-10-06T05:49:03,42.805,6.029,0.0,0.025,0.011,103.0,105.0,102.0,13.4,1505.2,339.1,-0.7,1.8,2471.447,13.29,0.025,0.0
2023-10-06T05:52:03,42.805,6.029,0.008,0.042,-0.008,104.0,104.0,102.0,13.4,1505.2,350.5,-0.8,1.8,2471.458,13.29,0.042,10.8
2023-10-06T05:55:03,42.805,6.029,-0.009,0.032,0.016,103.0,104.0,103.0,13.4,1505.2,343.6,-0.8,1.8,2471.457,13.29,0.033,344.3
2023-10-06T05:58:03,42.805,6.029,0.019,0.025,0.009,103.0,104.0,103.0,13.4,1505.2,338.3,-0.8,1.8,2471.458,13.29,0.031,37.2
2023-10-06T06:04:03,42.805,6.029,0.008,0.022,-0.014,103.0,103.0,102.0,13.4,1505.2,337.6,-0.7,1.8,2471.489,13.29,0.023,20.0
2023-10-06T06:07:03,42.805,6.029,-0.007,0.035,-0.027,103.0,105.0,101.0,13.3,1505.2,332.2,-0.8,1.8,2471.507,13.29,0.035,348.7
2023-10-06T06:10:03,42.805,6.029,0.0,0.018,-0.009,104.0,103.0,102.0,13.4,1505.2,338.3,-0.8,1.8,2471.517,13.29,0.018,0.0
2023-10-06T06:13:03,42.805,6.029,-0.005,0.01,-0.027,103.0,104.0,102.0,13.3,1505.2,338.9,-0.8,1.8,2471.465,13.29,0.011,333.4
2023-10-06T06:16:03,42.805,6.029,-0.01,0.029,-0.015,104.0,104.0,102.0,13.4,1505.2,332.5,-0.8,1.8,2471.474,13.29,0.03,341.0
2023-10-06T06:19:03,42.805,6.029,-0.003,0.019,-0.005,104.0,105.0,102.0,13.3,1505.2,339.1,-0.8,1.8,2471.457,13.29,0.019,351.0
2023-10-06T06:22:03,42.805,6.029,-0.017,0.028,-0.027,103.0,104.0,103.0,13.4,1505.2,328.8,-0.7,1.8,2471.444,13.29,0.032,328.7
2023-10-06T06:25:03,42.805,6.029,-0.006,0.018,0.006,103.0,103.0,102.0,13.4,1505.2,334.7,-0.8,1.8,2471.483,13.29,0.018,341.6
2023-10-06T06:28:03,42.805,6.029,-0.01,0.056,0.007,104.0,103.0,102.0,13.4,1505.2,342.6,-0.7,1.8,2471.432,13.29,0.056,349.9
2023-10-06T06:31:03,42.805,6.029,-0.001,0.019,-0.007,103.0,104.0,101.0,13.4,1505.2,350.8,-0.8,1.9,2471.484,13.29,0.019,357.0
2023-10-06T06:34:03,42.805,6.029,0.01,0.021,0.003,104.0,104.0,101.0,13.4,1505.2,348.0,-0.7,1.8,2471.462,13.29,0.023,25.5
2023-10-06T06:37:03,42.805,6.029,-0.015,0.033,-0.009,103.0,103.0,101.0,13.4,1505.2,344.1,-0.7,1.8,2471.491,13.29,0.036,335.6
2023-10-06T06:40:03,42.805,6.029,-0.01,0.029,-0.035,104.0,104.0,101.0,13.4,1505.2,327.3,-0.8,1.8,2471.449,13.29,0.03,341.0
2023-10-06T06:43:03,42.805,6.029,-0.022,0.02,-0.017,103.0,104.0,101.0,13.4,1505.2,335.5,-0.8,1.8,2471.431,13.29,0.029,312.3
2023-10-06T06:46:03,42.805,6.029,-0.017,0.03,0.026,102.0,103.0,102.0,13.4,1505.2,330.6,-0.7,1.8,2471.443,13.29,0.034,330.5
2023-10-06T06:49:03,42.805,6.029,0.011,0.023,-0.017,104.0,103.0,102.0,13.4,1505.2,339.5,-0.8,1.8,2471.467,13.29,0.025,25.6
2023-10-06T06:52:03,42.805,6.029,-0.015,0.026,-0.019,103.0,102.0,102.0,13.3,1505.2,333.0,-0.8,1.8,2471.455,13.29,0.03,330.0
2023-10-06T06:55:03,42.805,6.029,-0.002,0.031,-0.011,103.0,104.0,101.0,13.4,1505.2,345.4,-0.7,1.8,2471.448,13.29,0.031,356.3
2023-10-06T06:58:03,42.805,6.029,-0.007,0.028,0.009,103.0,104.0,101.0,13.4,1505.2,341.5,-0.7,1.8,2471.465,13.29,0.028,346.0
2023-10-06T07:04:03,42.805,6.029,0.0,0.024,-0.021,103.0,104.0,103.0,13.4,1505.2,333.8,-0.7,1.8,2471.491,13.29,0.024,0.0
2023-10-06T07:07:03,42.805,6.029,0.01,0.031,0.005,103.0,104.0,102.0,13.3,1505.2,346.5,-0.8,1.8,2471.492,13.29,0.032,17.9
2023-10-06T07:10:03,42.805,6.029,0.011,0.026,-0.019,104.0,104.0,102.0,13.4,1505.2,341.2,-0.8,1.8,2471.506,13.29,0.028,22.9
2023-10-06T07:13:03,42.805,6.029,0.002,0.034,-0.002,104.0,103.0,102.0,13.4,1505.2,346.7,-0.8,1.8,2471.463,13.29,0.034,3.4
2023-10-06T07:16:03,42.805,6.029,-0.006,0.046,-0.001,104.0,103.0,102.0,13.4,1505.2,351.4,-0.8,1.8,2471.496,13.29,0.046,352.6
2023-10-06T07:19:03,42.805,6.029,-0.001,0.038,-0.014,103.0,104.0,102.0,13.4,1505.2,341.5,-0.7,1.8,2471.441,13.29,0.038,358.5
2023-10-06T07:22:03,42.805,6.029,0.002,0.013,0.006,103.0,104.0,103.0,13.4,1505.2,347.3,-0.8,1.8,2471.494,13.29,0.013,8.7
2023-10-06T07:25:03,42.805,6.029,-0.011,0.035,0.001,104.0,104.0,102.0,13.3,1505.2,328.5,-0.8,1.8,2471.463,13.29,0.036,342.6
2023-10-06T07:28:03,42.805,6.029,-0.005,0.017,-0.036,104.0,104.0,103.0,13.3,1505.2,334.8,-0.8,1.8,2471.488,13.29,0.017,343.6
2023-10-06T07:31:03,42.805,6.029,0.003,0.004,0.006,103.0,104.0,102.0,13.3,1505.2,350.1,-0.8,1.8,2471.482,13.29,0.005,36.9
2023-10-06T07:34:03,42.805,6.029,-0.006,0.021,-0.021,104.0,102.0,102.0,13.3,1505.2,331.9,-0.8,1.8,2471.483,13.29,0.021,344.1
2023-10-06T07:37:03,42.805,6.029,-0.006,0.018,0.023,104.0,103.0,101.0,13.4,1505.2,335.5,-0.8,1.8,2471.479,13.29,0.018,341.6
2023-10-06T07:40:03,42.805,6.029,-0.019,0.039,-0.008,104.0,103.0,101.0,13.4,1505.2,342.1,-0.8,1.8,2471.46,13.29,0.043,334.0
2023-10-06T07:43:03,42.805,6.029,-0.021,0.045,-0.011,103.0,104.0,102.0,13.4,1505.2,327.5,-0.8,1.8,2471.459,13.29,0.049,335.0
2023-10-06T07:46:03,42.805,6.029,-0.024,0.033,0.003,103.0,103.0,102.0,13.3,1505.2,342.8,-0.8,1.8,2471.478,13.29,0.04,324.0
2023-10-06T07:49:03,42.805,6.029,-0.01,0.005,0.004,103.0,104.0,102.0,13.3,1505.2,345.4,-0.7,1.8,2471.448,13.29,0.011,296.6
2023-10-06T07:52:03,42.805,6.029,0.0,0.035,0.004,102.0,104.0,103.0,13.4,1505.2,340.9,-0.8,1.8,2471.499,13.29,0.035,0.0
2023-10-06T07:55:03,42.805,6.029,-0.005,0.023,0.027,104.0,103.0,102.0,13.4,1505.2,334.2,-0.8,1.8,2471.486,13.29,0.023,347.7
2023-10-06T07:58:03,42.805,6.029,-0.016,0.032,0.007,104.0,104.0,101.0,13.4,1505.2,337.5,-0.8,1.8,2471.471,13.29,0.035,333.4
2023-10-06T08:04:03,42.805,6.029,-0.016,0.006,-0.005,104.0,104.0,102.0,13.4,1505.2,333.8,-0.8,1.8,2471.535,13.29,0.017,290.6
2023-10-06T08:07:03,42.805,6.029,-0.001,0.027,-0.01,104.0,104.0,102.0,13.3,1505.2,329.4,-0.8,1.8,2471.513,13.29,0.027,357.9
2023-10-06T08:10:03,42.805,6.029,-0.006,0.039,0.004,103.0,103.0,102.0,13.3,1505.2,339.9,-0.8,1.8,2471.519,13.29,0.039,351.3
2023-10-06T08:13:03,42.805,6.029,-0.016,0.017,-0.024,104.0,103.0,102.0,13.4,1505.2,348.6,-0.8,1.8,2471.517,13.29,0.023,316.7
2023-10-06T08:16:03,42.805,6.029,-0.004,0.021,0.007,103.0,104.0,101.0,13.3,1505.2,350.9,-0.8,1.8,2471.525,13.29,0.021,349.2
2023-10-06T08:19:03,42.805,6.029,0.023,0.002,-0.058,104.0,103.0,102.0,13.4,1505.2,345.9,-0.8,1.8,2471.502,13.29,0.023,85.0
2023-10-06T08:22:03,42.805,6.029,0.001,0.036,-0.007,102.0,104.0,102.0,13.4,1505.2,347.0,-0.8,1.8,2471.512,13.29,0.036,1.6
2023-10-06T08:25:03,42.805,6.029,-0.028,0.027,-0.018,103.0,103.0,102.0,13.4,1505.2,347.5,-0.8,1.8,2471.506,13.29,0.038,314.0
2023-10-06T08:28:03,42.805,6.029,-0.008,0.025,-0.019,104.0,104.0,102.0,13.4,1505.2,346.5,-0.8,1.8,2471.468,13.29,0.026,342.3
2023-10-06T08:31:03,42.805,6.029,0.014,0.032,-0.005,104.0,103.0,102.0,13.3,1505.2,345.0,-0.7,1.8,2471.544,13.29,0.034,23.6
2023-10-06T08:34:03,42.805,6.029,0.018,0.047,-0.014,104.0,104.0,102.0,13.3,1505.2,345.0,-0.8,1.8,2471.506,13.29,0.05,21.0
2023-10-06T08:37:03,42.805,6.029,0.009,0.027,0.013,104.0,103.0,102.0,13.4,1505.2,353.4,-0.8,1.8,2471.488,13.29,0.028,18.4
2023-10-06T08:40:03,42.805,6.029,-0.01,0.034,0.037,104.0,104.0,102.0,13.3,1505.2,330.2,-0.8,1.8,2471.47,13.29,0.035,343.6
2023-10-06T08:43:03,42.805,6.029,0.0,0.022,0.011,104.0,104.0,103.0,13.4,1505.2,347.5,-0.7,1.8,2471.463,13.29,0.022,0.0
2023-10-06T08:46:03,42.805,6.029,0.005,0.028,-0.029,105.0,102.0,102.0,13.4,1505.2,333.4,-0.8,1.9,2471.523,13.29,0.028,10.1
2023-10-06T08:49:03,42.805,6.029,-0.007,0.038,-0.005,104.0,105.0,102.0,13.4,1505.2,342.1,-0.8,1.8,2471.5,13.29,0.038,349.6
2023-10-06T08:52:03,42.805,6.029,0.0,0.053,0.021,103.0,104.0,102.0,13.4,1505.2,350.8,-0.8,1.8,2471.526,13.29,0.053,0.0
2023-10-06T08:55:03,42.805,6.029,-0.009,0.022,0.016,103.0,104.0,102.0,13.3,1505.2,340.9,-0.8,1.8,2471.511,13.29,0.023,337.8
2023-10-06T08:58:03,42.805,6.029,0.007,0.035,-0.011,103.0,103.0,102.0,13.3,1505.2,346.8,-0.8,1.8,2471.513,13.29,0.035,11.3
2023-10-06T09:04:03,42.805,6.029,0.011,0.029,-0.024,104.0,103.0,104.0,13.3,1505.2,335.9,-0.8,1.8,2471.564,13.29,0.031,20.8
2023-10-06T09:07:03,42.805,6.029,-0.006,0.024,-0.018,103.0,103.0,102.0,13.4,1505.2,334.5,-0.8,1.8,2471.583,13.29,0.024,346.0
2023-10-06T09:10:03,42.805,6.029,-0.039,0.056,0.012,103.0,103.0,102.0,13.3,1505.2,340.4,-0.8,1.8,2471.533,13.29,0.068,325.1
2023-10-06T09:13:03,42.805,6.029,0.002,0.036,-0.029,104.0,103.0,102.0,13.4,1505.2,355.8,-0.8,1.8,2471.513,13.29,0.036,3.2
2023-10-06T09:16:03,42.805,6.029,-0.007,0.021,0.007,103.0,104.0,102.0,13.3,1505.2,336.1,-0.7,1.8,2471.53,13.29,0.022,341.6
2023-10-06T09:19:03,42.805,6.029,-0.001,0.021,-0.008,105.0,103.0,102.0,13.3,1505.2,350.7,-0.8,1.8,2471.522,13.29,0.021,357.3
2023-10-06T09:22:03,42.805,6.029,-0.027,0.019,-0.016,105.0,104.0,103.0,13.3,1505.2,342.1,-0.8,1.8,2471.528,13.29,0.033,305.1
2023-10-06T09:25:03,42.805,6.029,-0.009,0.029,-0.004,105.0,103.0,101.0,13.4,1505.2,354.7,-0.8,1.8,2471.556,13.29,0.03,342.8
2023-10-06T09:28:03,42.805,6.029,0.001,0.028,0.021,103.0,104.0,101.0,13.3,1505.2,331.1,-0.8,1.8,2471.523,13.29,0.028,2.0
2023-10-06T09:31:03,42.805,6.029,-0.005,0.045,0.006,103.0,104.0,102.0,13.4,1505.2,342.4,-0.8,1.8,2471.557,13.29,0.045,353.7
2023-10-06T09:34:03,42.805,6.029,0.0,0.024,-0.016,103.0,103.0,102.0,13.4,1505.2,349.1,-0.8,1.8,2471.534,13.29,0.024,0.0
2023-10-06T09:37:03,42.805,6.029,0.015,0.046,0.006,102.0,103.0,102.0,13.3,1505.2,356.8,-0.8,1.8,2471.519,13.29,0.048,18.1
2023-10-06T09:40:03,42.805,6.029,0.003,0.007,-0.022,104.0,103.0,101.0,13.4,1505.2,340.2,-0.8,1.8,2471.564,13.29,0.007,23.2
2023-10-06T09:43:03,42.805,6.029,0.012,0.026,0.02,104.0,103.0,103.0,13.4,1505.2,347.4,-0.8,1.8,2471.522,13.29,0.028,24.8
2023-10-06T09:46:03,42.805,6.029,0.0,0.021,0.018,106.0,105.0,101.0,13.4,1505.2,339.1,-0.8,1.8,2471.557,13.29,0.021,0.0
2023-10-06T09:49:03,42.805,6.029,-0.021,0.044,-0.044,104.0,103.0,103.0,13.4,1505.2,331.1,-0.7,1.8,2471.545,13.29,0.048,334.5
2023-10-06T09:52:03,42.805,6.029,0.004,0.015,-0.008,103.0,103.0,103.0,13.4,1505.2,339.1,-0.8,1.8,2471.528,13.29,0.015,14.9
2023-10-06T09:55:03,42.805,6.029,-0.028,0.033,-0.027,102.0,104.0,101.0,13.4,1505.2,345.2,-0.8,1.8,2471.556,13.29,0.043,319.7
2023-10-06T09:58:03,42.805,6.029,0.018,0.014,-0.011,104.0,103.0,101.0,13.4,1505.2,339.1,-0.8,1.8,2471.539,13.29,0.022,52.1
2023-10-06T10:04:03,42.805,6.029,0.011,0.016,0.0,106.0,103.0,102.0,13.4,1505.2,341.5,-0.7,1.8,2471.605,13.29,0.019,34.5